Location: Zilina
(0.0000°N, 18.7333°E)
Time: 17:09:57
(UTC+01:00)

Daily predictions for brighter satellites

Satellite Brightness Start Highest point End
(mag) Time Altitude Azimuth Time Altitude Azimuth Time Altitude Azimuth
GPS 2-12 Rocket1 4.0 17:49:02 10° SW 17:53:06 35° SSE 17:57:12 10° E
ATLAS 5 CENTAUR R/B 3.3 17:52:51 10° N 17:58:45 32° ENE 18:04:48 10° SE
CZ-3B R/B 3.5 17:49:34 10° WNW 17:59:21 52° NNE 18:01:59 10° E
GPS 2-15 Rocket1 4.2 17:58:28 10° NW 18:02:28 28° NNE 18:06:18 11° ENE
CZ-4 R/B 1.3 18:01:10 10° SSE 18:04:58 58° E 18:08:49 10° N
USA 161 4.2 18:04:36 10° WNW 18:05:20 11° W 18:06:06 10° WSW
CZ-4C R/B 3.4 18:02:21 10° SW 18:06:39 35° WNW 18:11:04 10° N
Cosmos 1606 3.3 18:03:22 10° SSE 18:06:52 34° E 18:10:21 10° NNE
Meteor 1-26 Rocket 4.3 18:03:55 10° S 18:09:51 71° E 18:15:42 10° NNE
NOAA 12 4.1 18:08:54 10° SSE 18:14:07 58° ENE 18:19:20 10° N
Intelsat 5-3 Rocket 3.5 18:13:21 10° WSW 18:15:10 20° SSW 18:16:57 10° SSE
Cosmos 1809 Rocket 4.4 18:10:36 10° S 18:16:42 78° E 18:22:45 10° N
Delta 198 3.7 18:13:54 10° WSW 18:18:18 71° SSE 18:22:11 17° ENE
NOSS 3-1 (C) 4.5 18:12:28 10° NNW 18:21:07 80° WSW 18:29:46 10° SSE
Ariane H10-3 3.5 18:17:15 10° WNW 18:22:03 67° N 18:44:51 16° E
Ariane H10-3 3.5 18:17:15 10° WNW 18:22:04 67° N 18:44:49 16° E
YAOGAN 1 2.5 18:17:51 10° SSE 18:22:10 68° ENE 18:26:26 10° N
Cosmos 1833 Rocket 4.5 18:18:08 10° NW 18:23:12 36° WSW 18:28:17 10° S
CSL-04 Debris 4.4 18:20:36 10° S 18:26:05 77° WSW 18:31:34 10° NNW
Ariane H10-3 2.2 18:18:30 10° WNW 18:26:21 59° N 18:27:54 25° ENE
Cosmos 2082 Rocket 3.6 18:22:34 10° NW 18:27:53 42° WSW 18:33:16 10° S
COSMOS 2455 3.4 18:22:46 10° NNW 18:28:41 63° WSW 18:34:36 10° S
Cosmos 2184 Rocket 4.0 18:23:39 10° S 18:29:59 71° E 18:36:19 10° N
NOSS 3-1 (A) 4.2 18:21:51 10° NNW 18:30:31 82° ENE 18:39:11 10° SSE
Meteor 2-14 Rocket 4.4 18:24:50 10° S 18:30:58 77° E 18:37:01 10° N
Cosmos 2181 Rocket 4.2 18:26:13 10° NNE 18:32:10 49° E 18:38:13 10° SSE
GPS 2-18 Rocket1 3.3 18:29:39 10° NW 18:33:11 44° NNE 18:34:22 32° ENE
Cosmos 2074 Rocket 3.9 18:27:28 10° S 18:33:40 81° E 18:39:52 10° N
Cosmos 1331 Rocket 3.9 18:30:24 10° N 18:35:31 68° ENE 18:40:42 10° SSE
USA 215 3.3 18:29:12 10° SE 18:35:46 84° SW 18:42:20 10° NW
MTI 4.0 18:38:28 41° E 18:38:45 43° E 18:41:44 10° S
SL-24 DEB 4.1 18:34:44 10° S 18:39:21 75° E 18:43:59 10° N
Cosmos 2327 Rocket 4.4 18:33:35 10° S 18:39:37 68° E 18:45:39 10° N
Envisat 3.4 18:36:51 10° SE 18:41:30 37° ENE 18:46:08 10° NNE
Cosmos 1869 Rocket 3.4 18:38:14 10° N 18:42:32 66° E 18:46:50 10° SSE
GPS 2-17 Rocket1 3.5 18:38:38 10° W 18:43:06 56° SSW 18:46:06 19° SE
deb Ariane 4.0 18:41:32 10° WNW 18:44:12 31° N 18:44:31 30° NNE
Cosmos 407 Rocket 3.3 18:42:24 10° S 18:47:37 80° ESE 18:51:14 20° NNE
H-2A R/B 4.3 18:48:11 10° SSW 18:51:34 35° WSW 18:54:57 10° NW
Cosmos 374 Rocket 4.4 18:50:44 10° NNW 18:59:51 - SSE 18:54:11 53° NE
Centaur D-1AR AC-39 3.1 18:49:08 10° W 18:55:45 41° SSW 18:58:25 16° SE
BREEZE-M TANK 2.7 18:55:11 10° NW 18:58:23 72° NE 19:06:27 10° SE
ARIANE 44L R/B 3.8 18:31:34 10° W 18:59:36 62° N 19:01:32 41° ENE
Meteor 1-10 Rocket 4.0 18:55:52 10° S 19:01:28 72° E 19:04:03 32° NNE
Cosmos 2154 Rocket 3.9 18:56:47 10° S 19:03:02 76° E 19:07:28 21° N
EO 1 Del DPAF 4.4 19:04:32 31° SSE 19:04:32 31° SSE 19:06:45 10° S
IRS-1A Rocket 4.5 18:59:35 10° S 19:05:17 75° WSW 19:11:03 10° NNW
ISS -2.1 19:02:55 10° SSW 19:04:38 26° S 19:04:38 26° S
HETE-2 4.5 19:01:58 10° W 19:06:05 77° S 19:06:08 77° S
ARIANE DEB (SPELDA) 2.8 19:10:06 10° WNW 19:12:40 59° N 19:12:40 59° N
Cosmos 921 Rocket 3.6 19:14:05 10° NNW 19:18:30 57° W 19:22:53 10° S
Palapa 6 Rocket 3.5 19:12:49 10° WSW 19:19:07 72° NNW 19:19:29 69° N
Cosmos 1302 Rocket 4.1 19:16:47 10° NNW 19:22:02 74° WSW 19:27:18 10° S
ARIANE 5 DEB (SYLDA) 4.1 19:20:25 10° W 19:21:49 33° WSW 19:21:49 33° WSW
Cosmos 1295 Rocket 4.2 19:17:23 10° S 19:23:28 74° E 19:23:52 71° ENE
ARIANE 5 R/B 3.4 19:21:14 10° W 19:25:24 48° NW 19:25:24 48° NW
ARIANE 5 R/B 3.6 18:17:59 10° W 19:27:59 80° N 19:29:38 58° ENE
Cosmos 2341 Rocket 3.8 19:26:32 10° S 19:32:46 85° E 19:32:51 84° ENE
GPS 2-12 Rocket1 4.4 19:32:11 10° WSW 19:34:55 35° W 19:34:55 35° W
Lacrosse 5 3.9 19:37:07 10° S 19:38:36 18° S 19:38:36 18° S
ATLAS 5 CENTAUR R/B 4.4 19:37:32 10° NW 19:43:21 30° WSW 19:49:16 10° S
ARIANE 5 R/B 4.1 19:47:19 10° W 20:00:33 54° WSW 20:00:33 54° WSW
Ariane 42L Rocket 4.4 19:54:37 10° W 20:16:16 68° W 20:16:16 68° W
